Regional Weather Roundup
Issued by NWS

Home | Current Version | Previous Version | Graphics & Text | Print | Product List | Glossary On
Versions: 1 2 3 4 5 6 7 8 9 10 11 12 13 14 15 16 17 18 19 20 21 22 23 24 25 26 27 28 29 30 31 32 33 34 35 36 37 38 39 40 41 42 43 44 45 46 47 48 49 50
000
ASUS45 KSLC 041010
RWRUT

UTAH REGIONAL WEATHER ROUNDUP
NATIONAL WEATHER SERVICE SALT LAKE CITY UT
300 AM MST WED MAR 04 2015

UTZ001>011-023>025-041100-

NORTHERN UTAH

CITY           SKY/WX    TMP DP  RH WIND       PRES   REMARKS
BRIGHAM CITY   CLEAR     24  19  82 CALM      30.06R
HILL AFB       CLOUDY    26  20  78 E6        30.02S WCI  19
LOGAN          CLOUDY    26  20  77 CALM      30.04R
OGDEN          PTCLDY    25  19  78 S9        30.03R WCI  15
PROVO AIRPORT  MOCLDY    23  19  86 E5        30.06R WCI  17
SALT LAKE CITY MOCLDY    29  22  75 SE6       30.05R WCI  23
VERNAL         CLEAR     19  13  77 SE5       29.96S WCI  12
WENDOVER       PTCLDY    28  10  47 NW10      30.08R WCI  19
HEBER CITY     PTCLDY    12   9  85 CALM      30.01S
WEST JORDAN    CLOUDY    27  21  80 CALM      30.05R

$$

UTZ012>022-026-027-041100-

SOUTHERN/CENTRAL UTAH

CITY           SKY/WX    TMP DP  RH WIND       PRES   REMARKS
BLANDING       MOCLDY    27  25  91 W7        29.96F WCI  19
BRYCE CANYON   PTCLDY     9   2  73 NW12      29.95R WCI  -6
CEDAR CITY     PTCLDY    11   7  84 NE3       29.99S
DELTA          CLEAR     24  19  83 CALM      30.05S
HANKSVILLE     CLEAR     30  19  64 W5        30.00F WCI  25
MILFORD        CLEAR     16  11  80 S5        30.03S WCI   9
MOAB/CYNLANDS  CLEAR     28  17  63 NW14      29.94R WCI  17
PRICE          PTCLDY    22   9  57 SW5       29.94S WCI  16
ST GEORGE      MOSUNNY   36  27  69 CALM      30.04S
KANAB          CLEAR     28  14  54 N14       30.02R WCI  17

$$

REGIONAL REPORTS     COLORADO/ARIZONA

CITY           SKY/WX    TMP DP  RH WIND       PRES   REMARKS
CRAIG, CO      CLOUDY    14   5  67 SW7       29.97S WCI   4
GRAND JUNCTION LGT SNOW  27  27 100 SE3       29.93F FOG
RIFLE          CLOUDY    26  12  55 NW5       29.95R WCI  20
MONTROSE       CLOUDY    28  26  92 CALM      29.91F
CORTEZ         CLOUDY    30  27  88 CALM      29.90R
PAGE, AZ       CLEAR     34  14  43 NW9G18    29.95S WCI  27
GRAND CANYON   PTCLDY    25  23  92 NW5       29.92F WCI  19
KINGMAN        CLEAR     36  33  89 E6        29.98R WCI  31
FLAGSTAFF      NOT AVBL

$$

REGIONAL REPORTS    NEVADA/IDAHO/WYOMING

CITY           SKY/WX    TMP DP  RH WIND       PRES   REMARKS
LAS VEGAS, NV  CLEAR     47  18  31 NW7       30.01S
ELY            MOCLDY     6   3  87 S10       30.05S WCI  -9
ELKO           PTCLDY    17  12  80 CALM      30.10R
POCATELLO, ID  CLEAR     18  16  92 W3        30.07R
BURLEY         CLEAR     27  13  55 W16G23    30.05R WCI  15
EVANSTON, WY   MOCLDY    10   6  84 SW10      29.94R WCI  -4
ROCK SPRINGS   CLOUDY    -1  -5  82 E10       29.97R FOG     WCI -17

$$



USA.gov is the U.S. government's official web portal to all federal, state and local government web resources and services.